KE0WPC Weather Reports


time (UTC)temp
C
wind
direction
speed
KPH
gust
KPH
rain 1hr
cm
rain 24hr
cm
rain mn
cm
humidity
%
barometer
mb
20260504130343 11 0.0 0.0 0.00 0.00 0.00 59 1003.2
20260504120301 9 0.0 0.0 0.00 0.00 0.00 68 1002.1
20260504110224 9 0.0 0.0 0.00 0.00 0.00 58 1001.8
20260504100143 10 0.0 0.0 0.00 0.00 0.00 51 1001.8
20260504090105 10 0.0 0.0 0.00 0.00 0.00 46 1001.1
20260504081535 9 0.0 0.0 0.00 0.00 0.00 43 1001.4
20260504081031 9 0.0 0.0 0.00 0.00 0.00 43 1001.4
20260504080528 9 0.0 0.0 0.00 0.00 0.00 43 1001.8
20260504050346 11 0.0 0.0 0.00 0.00 0.00 32 1004.3
20260504045844 11 0.0 0.0 0.00 0.00 0.00 32 1004.3
20260504045344 11 0.0 0.0 0.00 0.00 0.00 32 1004.7
20260504044841 12 0.0 0.0 0.00 0.00 0.00 32 1004.3
20260504044338 12 0.0 0.0 0.00 0.00 0.00 31 1004.7
20260504043836 12 0.0 0.0 0.00 0.00 0.00 30 1004.7
20260504043332 12 0.0 0.0 0.00 0.00 0.00 30 1005.0
20260504042830 12 0.0 0.0 0.00 0.00 0.00 29 1005.0
20260504042326 12 0.0 0.0 0.00 0.00 0.00 29 1005.0
20260504041822 12 0.0 0.0 0.00 0.00 0.00 29 1004.7
20260504041318 12 0.0 0.0 0.00 0.00 0.00 29 1004.7
20260504040815 12 0.0 0.0 0.00 0.00 0.00 28 1005.0
20260504040313 12 0.0 0.0 0.00 0.00 0.00 28 1005.0
20260504035808 12 0.0 0.0 0.00 0.00 0.00 28 1005.4
20260504035305 12 0.0 0.0 0.00 0.00 0.00 28 1005.0
20260504034802 12 0.0 0.0 0.00 0.00 0.00 28 1005.0
20260504034300 12 0.0 0.0 0.00 0.00 0.00 28 1005.4
20260504033757 12 0.0 0.0 0.00 0.00 0.00 28 1005.4
20260504033255 12 0.0 0.0 0.00 0.00 0.00 28 1005.7
20260504032751 12 0.0 0.0 0.00 0.00 0.00 28 1005.7
20260504032249 12 0.0 0.0 0.00 0.00 0.00 28 1006.1
20260504031745 12 0.0 0.0 0.00 0.00 0.00 28 1005.7
20260504031243 12 0.0 0.0 0.00 0.00 0.00 27 1006.1
20260504030738 12 0.0 0.0 0.00 0.00 0.00 27 1006.5
20260504030236 12 0.0 0.0 0.00 0.00 0.00 27 1006.5
20260504025732 12 0.0 0.0 0.00 0.00 0.00 25 1006.5
20260504025229 12 0.0 0.0 0.00 0.00 0.00 24 1006.5
20260504024726 12 0.0 0.0 0.00 0.00 0.00 24 1006.5
20260504024223 13 0.0 0.0 0.00 0.00 0.00 22 1006.5
20260504023720 13 0.0 0.0 0.00 0.00 0.00 21 1006.5
20260504023215 13 0.0 0.0 0.00 0.00 0.00 21 1006.5
20260504022712 13 0.0 0.0 0.00 0.00 0.00 20 1006.5
20260504022208 13 0.0 0.0 0.00 0.00 0.00 18 1006.5
20260504021706 13 0.0 0.0 0.00 0.00 0.00 18 1006.8
20260504021202 13 0.0 0.0 0.00 0.00 0.00 18 1006.8
20260504020659 13 0.0 0.0 0.00 0.00 0.00 17 1006.8
20260504020155 14 0.0 0.0 0.00 0.00 0.00 17 1006.8
20260504015652 14 0.0 0.0 0.00 0.00 0.00 17 1006.8
20260504015148 14 0.0 0.0 0.00 0.00 0.00 16 1006.8
20260504014644 15 0.0 0.0 0.00 0.00 0.00 16 1006.8
20260504014142 15 0.0 0.0 0.00 0.00 0.00 13 1006.8
20260504013639 15 0.0 0.0 0.00 0.00 0.00 13 1007.1
20260504013136 16 0.0 0.0 0.00 0.00 0.00 13 1007.1
20260504012633 16 0.0 0.0 0.00 0.00 0.00 13 1007.1
20260504012131 16 0.0 0.0 0.00 0.00 0.00 13 1007.1
20260504011628 17 0.0 0.0 0.00 0.00 0.00 11 1006.8
20260504011124 17 0.0 0.0 0.00 0.00 0.00 11 1007.1
20260504010620 17 0.0 0.0 0.00 0.00 0.00 11 1007.1
20260504010116 18 0.0 0.0 0.00 0.00 0.00 11 1007.1
20260504005613 18 0.0 0.0 0.00 0.00 0.00 11 1007.1
20260504005110 18 0.0 0.0 0.00 0.00 0.00 11 1007.1
20260504004608 19 0.0 0.0 0.00 0.00 0.00 12 1007.1
20260504004105 19 0.0 0.0 0.00 0.00 0.00 12 1007.1
20260504003601 20 0.0 0.0 0.00 0.00 0.00 12 1007.1
20260504003058 20 0.0 0.0 0.00 0.00 0.00 12 1007.1
20260504002555 20 0.0 0.0 0.00 0.00 0.00 12 1007.1
20260504002052 20 0.0 0.0 0.00 0.00 0.00 12 1007.1
20260504001550 20 0.0 0.0 0.00 0.00 0.00 10 1007.1
20260504001045 20 0.0 0.0 0.00 0.00 0.00 10 1007.1
20260504000543 21 0.0 0.0 0.00 0.00 0.00 10 1007.5
20260504000041 21 0.0 0.0 0.00 0.00 0.00 10 1007.1
20260503235539 21 0.0 0.0 0.00 0.00 0.00 10 1007.1
20260503235035 21 0.0 0.0 0.00 0.00 0.00 15 1007.5
20260503234533 21 0.0 0.0 0.00 0.00 0.00 15 1007.5
20260503234031 21 0.0 0.0 0.00 0.00 0.00 15 1007.5
20260503233527 21 0.0 0.0 0.00 0.00 0.00 15 1007.9
20260503233023 21 0.0 0.0 0.00 0.00 0.00 15 1007.9
20260503232520 21 0.0 0.0 0.00 0.00 0.00 15 1007.9
20260503232018 21 0.0 0.0 0.00 0.00 0.00 10 1007.9
20260503231516 21 0.0 0.0 0.00 0.00 0.00 10 1008.3
20260503231012 21 0.0 0.0 0.00 0.00 0.00 10 1008.3
20260503230508 21 0.0 0.0 0.00 0.00 0.00 10 1008.3
20260503230000 21 0.0 0.0 0.00 0.00 0.00 10 1008.3
20260503225457 21 0.0 0.0 0.00 0.00 0.00 14 1008.3
20260503224952 21 0.0 0.0 0.00 0.00 0.00 14 1008.6
20260503224449 21 0.0 0.0 0.00 0.00 0.00 14 1008.6
20260503223947 21 0.0 0.0 0.00 0.00 0.00 14 1008.3
20260503223445 21 0.0 0.0 0.00 0.00 0.00 14 1008.3
20260503222940 21 0.0 0.0 0.00 0.00 0.00 14 1008.3
20260503222439 22 0.0 0.0 0.00 0.00 0.00 12 1008.6
20260503221937 22 0.0 0.0 0.00 0.00 0.00 16 1008.3
20260503221435 22 0.0 0.0 0.00 0.00 0.00 18 1008.6
20260503220931 22 0.0 0.0 0.00 0.00 0.00 18 1008.6
20260503220427 22 0.0 0.0 0.00 0.00 0.00 19 1008.6
20260503215925 22 0.0 0.0 0.00 0.00 0.00 17 1008.6
20260503215422 22 0.0 0.0 0.00 0.00 0.00 17 1008.9
20260503214919 21 0.0 0.0 0.00 0.00 0.00 17 1008.6
20260503214416 21 0.0 0.0 0.00 0.00 0.00 16 1008.9
20260503213914 21 0.0 0.0 0.00 0.00 0.00 19 1008.9
20260503213412 21 0.0 0.0 0.00 0.00 0.00 19 1009.3
20260503212908 21 0.0 0.0 0.00 0.00 0.00 19 1008.9
20260503212406 21 0.0 0.0 0.00 0.00 0.00 19 1008.9
20260503211903 21 0.0 0.0 0.00 0.00 0.00 18 1009.3
20260503211359 21 0.0 0.0 0.00 0.00 0.00 20 1009.3
20260503210854 21 0.0 0.0 0.00 0.00 0.00 17 1009.3
20260503210352 21 0.0 0.0 0.00 0.00 0.00 21 1009.7
20260503205847 21 0.0 0.0 0.00 0.00 0.00 22 1009.7
20260503205345 21 0.0 0.0 0.00 0.00 0.00 20 1009.7
20260503204841 21 0.0 0.0 0.00 0.00 0.00 18 1010.1
20260503204338 21 0.0 0.0 0.00 0.00 0.00 22 1010.1
20260503203835 21 0.0 0.0 0.00 0.00 0.00 22 1010.1
20260503203333 21 0.0 0.0 0.00 0.00 0.00 23 1009.7
20260503202829 21 0.0 0.0 0.00 0.00 0.00 23 1010.1
20260503202328 21 0.0 0.0 0.00 0.00 0.00 21 1010.1
20260503201826 21 0.0 0.0 0.00 0.00 0.00 23 1010.1
20260503201322 21 0.0 0.0 0.00 0.00 0.00 23 1010.4
20260503200820 21 0.0 0.0 0.00 0.00 0.00 23 1010.1
20260503200315 21 0.0 0.0 0.00 0.00 0.00 24 1010.4
20260503195813 21 0.0 0.0 0.00 0.00 0.00 25 1010.7
20260503195310 20 0.0 0.0 0.00 0.00 0.00 24 1010.7
20260503194807 21 0.0 0.0 0.00 0.00 0.00 23 1010.7
20260503194303 21 0.0 0.0 0.00 0.00 0.00 24 1010.7
20260503193759 21 0.0 0.0 0.00 0.00 0.00 24 1010.7
20260503193255 20 0.0 0.0 0.00 0.00 0.00 25 1010.7
20260503192751 20 0.0 0.0 0.00 0.00 0.00 25 1011.1
20260503192246 20 0.0 0.0 0.00 0.00 0.00 25 1011.1
20260503191743 20 0.0 0.0 0.00 0.00 0.00 28 1011.1
20260503191240 20 0.0 0.0 0.00 0.00 0.00 28 1011.1
20260503190737 20 0.0 0.0 0.00 0.00 0.00 28 1011.1
20260503190233 20 0.0 0.0 0.00 0.00 0.00 28 1011.1
20260503185731 20 0.0 0.0 0.00 0.00 0.00 28 1011.1
20260503185226 20 0.0 0.0 0.00 0.00 0.00 26 1011.1
20260503184721 20 0.0 0.0 0.00 0.00 0.00 29 1011.1
20260503184217 20 0.0 0.0 0.00 0.00 0.00 29 1011.5
20260503183714 20 0.0 0.0 0.00 0.00 0.00 28 1011.5
20260503183211 20 0.0 0.0 0.00 0.00 0.00 28 1011.5
20260503182709 20 0.0 0.0 0.00 0.00 0.00 29 1011.1
20260503182208 20 0.0 0.0 0.00 0.00 0.00 31 1011.1
20260503181703 19 0.0 0.0 0.00 0.00 0.00 29 1011.9
20260503181201 19 0.0 0.0 0.00 0.00 0.00 29 1011.9
20260503180657 19 0.0 0.0 0.00 0.00 0.00 28 1011.9
20260503180156 19 0.0 0.0 0.00 0.00 0.00 28 1011.9
20260503175652 20 0.0 0.0 0.00 0.00 0.00 29 1012.2
20260503175150 20 0.0 0.0 0.00 0.00 0.00 30 1012.2
20260503174646 19 0.0 0.0 0.00 0.00 0.00 31 1011.9
20260503174143 18 0.0 0.0 0.00 0.00 0.00 33 1012.2
20260503173638 18 0.0 0.0 0.00 0.00 0.00 31 1012.2
20260503173135 18 0.0 0.0 0.00 0.00 0.00 31 1012.2
20260503172632 19 0.0 0.0 0.00 0.00 0.00 30 1012.2
20260503172129 18 0.0 0.0 0.00 0.00 0.00 34 1012.2
20260503171625 18 0.0 0.0 0.00 0.00 0.00 34 1012.2
20260503171123 18 0.0 0.0 0.00 0.00 0.00 37 1012.2
20260503170620 18 0.0 0.0 0.00 0.00 0.00 38 1012.5
20260503170116 18 0.0 0.0 0.00 0.00 0.00 37 1012.5
20260503151006 16 0.0 0.0 0.00 0.00 0.00 48 1012.9
20260503150503 16 0.0 0.0 0.00 0.00 0.00 48 1012.9